Stations météo

réclame
Mon MeteoGroup
F3, Pays-Bas (6239): Température de l'air & dewpoint: 17.05.2018 22:00:00 - 23.05.2018 22:00:00 (CEST)F3, Pays-Bas (6239): Vitesse du vent & gusts: 17.05.2018 22:00:00 - 23.05.2018 22:00:00 (CEST)F3, Pays-Bas (6239): Direction du vent: 17.05.2018 22:00:00 - 23.05.2018 22:00:00 (CEST)F3, Pays-Bas (6239): reduced air pressure: 17.05.2018 22:00:00 - 23.05.2018 22:00:00 (CEST)F3, Pays-Bas (6239): visibility: 17.05.2018 22:00:00 - 23.05.2018 22:00:00 (CEST)
Date & Time tt [°C] td [°C] ff [km/h] ff [knt] fx [km/h] fx [knt] dd ppp [hPa] vv [km]
23.05.2018 22:00:00 9,2 9,2 31 17 32 18 NE 1026,5 0,4
23.05.2018 21:00:00 9,1 9,1 34 18 32 18 NE 1025,7 0,2
23.05.2018 20:00:00 9,2 9,2 34 18 36 19 NE 1025,8 0,4
23.05.2018 19:00:00 9,3 9,2 34 18 32 18 NE 1025,8 0,9
23.05.2018 18:00:00 9,7 9,5 31 17 32 18 NE 1026,1 2,2
23.05.2018 17:00:00 9,5 9,1 31 17 32 18 NE 1026,0 5
23.05.2018 16:00:00 9,8 9,2 31 17 32 18 NE 1026,2 8
23.05.2018 15:00:00 9,9 9,3 31 17 32 18 NE 1026,2 10
23.05.2018 14:00:00 9,3 8,9 31 17 32 18 NNE 1026,0 7
23.05.2018 13:00:00 9,5 9,0 34 18 32 18 NNE 1025,9 9
23.05.2018 12:00:00 9,1 8,7 31 17 32 18 NNE 1025,6 7
23.05.2018 11:00:00 9,4 9,0 29 16 32 18 NNE 1025,2 7
23.05.2018 10:00:00 9,6 9,2 28 15 32 18 NNE 1024,9 1,8
23.05.2018 09:00:00 9,7 9,0 29 16 32 18 NNE 1024,2 10
23.05.2018 08:00:00 10,1 9,1 29 16 36 19 NNE 1023,9 17
23.05.2018 07:00:00 11,4 9,7 35 19 36 19 NNE 1022,7 10
23.05.2018 06:00:00 11,6 9,7 29 16 36 19 NNE 1021,9 10
23.05.2018 05:00:00 11,6 9,7 31 17 36 19 - 1021,8 10
23.05.2018 04:00:00 13,1 8,5 37 20 36 19 NE 1021,1 10
23.05.2018 03:00:00 12,4 10,2 29 16 32 18 NE 1020,9 42
23.05.2018 02:00:00 12,4 10,1 34 18 32 18 NE 1020,6 10
23.05.2018 01:00:00 12,2 10,4 28 15 32 18 NNE 1020,2 10
23.05.2018 00:00:00 12,2 10,8 22 12 25 14 - 1019,8 10
22.05.2018 23:00:00 12,3 10,8 28 15 29 16 NE 1019,6 10
22.05.2018 22:00:00 12,3 10,8 29 16 32 18 NE 1019,1 10
22.05.2018 21:00:00 12,1 10,8 24 13 25 14 NNE 1018,7 10
22.05.2018 20:00:00 12,3 10,4 26 14 29 16 NE 1018,5 10
22.05.2018 19:00:00 12,5 10,2 24 13 29 16 NNE 1018,2 10
22.05.2018 18:00:00 11,9 10,6 28 15 29 16 NNE 1018,2 10
22.05.2018 17:00:00 11,9 10,5 24 13 29 16 NNE 1018,2 10
22.05.2018 16:00:00 11,9 10,6 21 11 18 10 NE 1017,8 10
22.05.2018 15:00:00 11,7 10,5 16 9 22 12 NE 1017,8 10
22.05.2018 14:00:00 11,7 10,5 22 12 22 12 ENE 1017,3 10
22.05.2018 13:00:00 11,5 10,5 22 12 22 12 ENE 1016,9 10
22.05.2018 12:00:00 11,6 10,4 22 12 29 16 ENE 1016,8 10
22.05.2018 11:00:00 12,0 10,2 31 17 32 18 E 1016,6 10
22.05.2018 10:00:00 12,0 10,1 34 18 32 18 ENE 1016,4 10
22.05.2018 09:00:00 11,8 10,0 34 18 32 18 ENE 1016,3 10
22.05.2018 08:00:00 11,8 9,8 34 18 32 18 ENE 1016,1 10
22.05.2018 07:00:00 11,9 9,7 35 19 32 18 ENE 1015,6 10
22.05.2018 06:00:00 11,7 9,6 34 18 32 18 ENE 1015,5 10
22.05.2018 05:00:00 11,9 9,6 34 18 32 18 ENE 1015,5 10
22.05.2018 04:00:00 12,0 9,6 31 17 32 18 ENE 1015,8 10
22.05.2018 03:00:00 12,2 9,5 34 18 29 16 ENE 1015,9 10
22.05.2018 02:00:00 12,7 9,4 34 18 32 18 E 1016,2 10
22.05.2018 01:00:00 13,0 9,6 35 19 36 19 E 1016,6 10
22.05.2018 00:00:00 13,2 9,5 37 20 36 19 ENE 1016,9 10
21.05.2018 23:00:00 13,1 9,3 42 23 40 21 ENE 1016,9 10
21.05.2018 22:00:00 13,4 9,1 41 22 40 21 E 1017,1 10
21.05.2018 21:00:00 13,5 8,9 41 22 40 21 ENE 1017,3 10
21.05.2018 20:00:00 13,7 8,8 42 23 40 21 ENE 1017,5 10
21.05.2018 19:00:00 13,4 9,1 41 22 40 21 ENE 1017,6 10
21.05.2018 18:00:00 13,1 9,5 37 20 36 19 ENE 1018,2 10
21.05.2018 17:00:00 12,6 9,6 34 18 32 18 E 1019,1 10
21.05.2018 16:00:00 12,2 9,2 34 18 32 18 E 1019,4 10
21.05.2018 15:00:00 12,1 8,8 35 19 32 18 E 1020,0 10
21.05.2018 14:00:00 11,7 8,9 34 18 32 18 E 1020,6 10
21.05.2018 13:00:00 11,7 8,8 35 19 32 18 E 1020,9 10
21.05.2018 12:00:00 11,8 8,6 34 18 32 18 E 1021,1 10
21.05.2018 11:00:00 12,0 8,6 35 19 32 18 E 1021,4 10
21.05.2018 10:00:00 11,8 8,9 34 18 40 21 ESE 1021,4 10
21.05.2018 09:00:00 12,0 8,9 34 18 47 25 ESE 1021,5 10
21.05.2018 08:00:00 11,9 9,1 31 17 32 18 ESE 1021,6 10
21.05.2018 07:00:00 11,9 9,1 35 19 32 18 ESE 1021,5 10
21.05.2018 06:00:00 11,6 9,3 35 19 36 19 ESE 1021,6 10
21.05.2018 05:00:00 12,0 9,0 37 20 36 19 ESE 1022,0 10
21.05.2018 04:00:00 12,4 9,0 41 22 40 21 ESE 1022,2 10
21.05.2018 03:00:00 12,6 9,1 39 21 36 19 ESE 1022,3 10
21.05.2018 02:00:00 12,9 9,0 41 22 36 19 ESE 1022,6 10
21.05.2018 01:00:00 13,1 8,8 39 21 40 21 E 1022,8 10
21.05.2018 00:00:00 12,5 9,3 28 15 29 16 E 1023,0 10
20.05.2018 23:00:00 12,0 9,0 21 11 22 12 E 1023,2 10
20.05.2018 22:00:00 13,1 7,7 26 14 29 16 E 1023,6 10
20.05.2018 21:00:00 12,2 9,1 9 5 14 8 E 1023,5 10
20.05.2018 20:00:00 12,4 9,9 13 7 14 8 ESE 1023,5 10
20.05.2018 19:00:00 11,8 10,7 13 7 11 6 ESE 1023,8 10
20.05.2018 18:00:00 11,2 11,1 9 5 32 18 E 1024,2 9
20.05.2018 17:00:00 9,3 9,3 4 2 7 4 - 1024,5 1,8
20.05.2018 16:00:00 9,3 9,3 11 6 18 10 ESE 1024,7 0,3
20.05.2018 15:00:00 9,0 9,0 18 10 22 12 E 1024,9 0,1
20.05.2018 14:00:00 8,9 8,9 21 11 22 12 E 1025,1 0,1
20.05.2018 13:00:00 8,6 8,6 21 11 22 12 E 1025,2 0,1
20.05.2018 12:00:00 8,9 8,8 15 8 22 12 ENE 1025,5 10
20.05.2018 11:00:00 8,4 8,4 16 9 18 10 ENE 1026,0 1,4
20.05.2018 10:00:00 8,2 8,2 13 7 18 10 ENE 1026,1 0,6
20.05.2018 09:00:00 7,8 7,8 9 5 11 6 NE 1025,9 0,3
20.05.2018 08:00:00 7,5 7,5 7 4 14 8 E 1025,6 0,2
20.05.2018 07:00:00 7,6 7,6 13 7 22 12 E 1024,8 0,1
20.05.2018 06:00:00 7,6 7,6 18 10 22 12 ESE 1024,6 0,3
20.05.2018 05:00:00 7,7 7,7 14 8 22 12 ESE 1025,1 0,3
20.05.2018 04:00:00 8,1 8,1 5 3 7 4 SE 1025,3 1,0
20.05.2018 03:00:00 8,4 8,4 9 5 14 8 ESE 1025,5 0,6
20.05.2018 02:00:00 8,5 8,5 15 8 18 10 ESE 1025,3 0,6
20.05.2018 01:00:00 8,6 8,6 13 7 18 10 ESE 1024,8 1,6
20.05.2018 00:00:00 8,6 8,6 9 5 14 8 SE 1025,1 0,6
19.05.2018 23:00:00 8,5 8,5 11 6 14 8 ESE 1024,9 0,3
19.05.2018 22:00:00 8,3 8,3 4 2 11 6 - 1024,7 0,5
19.05.2018 21:00:00 8,8 8,8 5 3 11 6 E 1024,1 0,2
19.05.2018 20:00:00 8,8 8,8 9 5 11 6 E 1024,0 0,2
19.05.2018 19:00:00 9,1 9,0 9 5 11 6 ESE 1024,0 0,2
19.05.2018 18:00:00 9,2 9,2 9 5 14 8 E 1024,2 0,4
19.05.2018 17:00:00 9,1 9,0 16 9 18 10 E 1024,2 0,5
19.05.2018 16:00:00 9,5 9,4 21 11 22 12 ENE 1024,4 0,3
19.05.2018 15:00:00 9,6 9,2 22 12 25 14 ENE 1024,1 1,1
19.05.2018 14:00:00 9,7 8,5 26 14 29 16 NE 1023,7 10
19.05.2018 13:00:00 9,8 8,3 18 10 25 14 - 1024,2 10
19.05.2018 12:00:00 9,9 8,4 22 12 29 16 NNE 1024,1 10
19.05.2018 11:00:00 9,9 8,3 11 6 25 14 - 1023,8 10
19.05.2018 10:00:00 9,8 8,3 16 9 25 14 - 1023,3 10
19.05.2018 09:00:00 9,3 8,2 9 5 22 12 - 1023,1 10
19.05.2018 08:00:00 9,6 8,0 11 6 25 14 - 1022,9 10
19.05.2018 07:00:00 10,0 7,9 13 7 29 16 - 1022,5 10
19.05.2018 06:00:00 9,8 7,6 13 7 29 16 - 1022,3 10
19.05.2018 05:00:00 9,8 7,5 21 11 29 16 - 1022,1 10
19.05.2018 04:00:00 10,0 7,3 13 7 29 16 - 1022,3 10
19.05.2018 03:00:00 9,9 7,6 11 6 29 16 - 1022,2 10
19.05.2018 02:00:00 10,0 7,6 15 8 29 16 N 1022,0 10
19.05.2018 01:00:00 9,7 8,1 18 10 29 16 - 1022,1 10
19.05.2018 00:00:00 9,6 8,2 24 13 29 16 N 1022,2 10
18.05.2018 23:00:00 9,7 8,3 24 13 29 16 N 1022,2 10
18.05.2018 22:00:00 9,6 8,3 26 14 36 19 NNW 1022,1 10
18.05.2018 21:00:00 9,3 8,3 35 19 36 19 NNW 1021,7 10
18.05.2018 20:00:00 9,3 8,3 34 18 36 19 NW 1021,5 10
18.05.2018 19:00:00 9,3 8,3 35 19 36 19 NNW 1021,4 10
18.05.2018 18:00:00 9,3 8,3 35 19 40 21 NNW 1021,5 10
18.05.2018 17:00:00 9,0 8,0 39 21 40 21 NNW 1021,3 10
18.05.2018 16:00:00 8,9 7,8 41 22 43 23 NNW 1021,4 10
18.05.2018 15:00:00 9,0 7,5 41 22 43 23 NNW 1021,5 10
18.05.2018 14:00:00 9,0 7,4 44 24 47 25 NW 1021,6 10
18.05.2018 13:00:00 8,9 7,2 41 22 43 23 NW 1021,6 10
18.05.2018 12:00:00 8,9 6,9 41 22 40 21 NW 1021,7 10
18.05.2018 11:00:00 8,8 6,4 41 22 43 23 NW 1021,7 10
18.05.2018 10:00:00 8,9 6,4 41 22 47 25 NNW 1021,8 10
18.05.2018 09:00:00 8,6 5,9 39 21 43 23 NNW 1022,0 10
18.05.2018 08:00:00 8,8 6,0 39 21 43 23 NNW 1021,7 10
18.05.2018 07:00:00 8,7 6,1 41 22 47 25 NNW 1021,5 10
18.05.2018 06:00:00 8,8 6,7 42 23 50 27 NNW 1021,4 10
18.05.2018 05:00:00 8,7 6,9 46 25 50 27 NW 1021,3 10
18.05.2018 04:00:00 8,7 6,7 44 24 47 25 NW 1021,7 10
18.05.2018 03:00:00 8,7 6,5 44 24 47 25 NNW 1022,0 10
18.05.2018 02:00:00 8,8 6,6 36 19 50 27 NW 1022,4 15
18.05.2018 01:00:00 8,7 6,0 40 21 - - NNW 1022,7 15
18.05.2018 00:00:00 8,7 6,4 48 26 50 27 NNW 1022,8 10
17.05.2018 23:00:00 8,8 6,6 50 27 54 29 NNW 1023,0 10
17.05.2018 22:00:00 8,7 6,5 48 26 50 27 NNW 1023,0 10

tt = Température de l'air
td = dewpoint
ff = Vitesse du vent
fx = gusts
dd = Direction du vent
ppp = reduced air pressure
vv = visibility

stations d'obs. à proximité